Tracking 27107 objects as of 20-Mar-2023
HD Live streaming from Space Station
objects crossing your sky now

SL-8 DEB

Track SL-8 DEB now!
10-day predictions


NORAD ID: 25027
Int'l Code: 1992-053D
Perigee: 764.4 km
Apogee: 770.1 km
Inclination: 74.0 °
Period: 100.0 minutes
Semi major axis: 7138 km
RCS: 0.0055 m2 (small)
Launch date: August 12, 1992
Source: Commonwealth of Independent States (former USSR) (CIS)
Launch site: PLESETSK MISSILE AND SPACE COMPLEX (PKMTR)

Note: This is SATELLITE DEBRIS
Your satellite tracking list
Your tracking list is empty




NASA's NSSDC Master Catalog

Two Line Element Set (TLE):
1 25027U 92053D   23078.67647885  .00001545  00000-0  50402-3 0  9995
2 25027  74.0329 148.7170 0004000 225.9910 291.4304 14.39502596358310
Source of the keplerian elements: AFSPC